sat.trackr.live / text

‹ back to catalog

STARLINK-2594

NORAD 48388 · 2021-038AM

PAYLOAD ACTIVE UNKNOWN

§ Identity

Operator
Country
US
Launch date
2021-05-04
Launch site
AFETR
Launch vehicle
Mass (kg)
RCS (m²)

Purposes: comms

External: N2YO · Heavens-Above · Gunter

§ Orbital elements

Epoch: 2026-09-19T05:26:58.403040Z

Period
94.01 min
Inclination
53.1645°
Eccentricity
0.0001335
Mean motion
15.31700653 rev/d
Perigee alt
469.8 km
Apogee alt
471.7 km
Semi-major
6,848.9 km
B*
4.5319e-5
RAAN
164.6377°
Arg perigee
81.9976°
Mean anomaly
278.1177°
Rev number
29,691

§ Raw data

STARLINK-25941 48388U 21038AM  26262.22706485  .00001041  00000+0  45319-4 0  99982 48388  53.1645 164.6377 0001335  81.9976 278.1177 15.31700653296914

JSON: /api/v1/satellites/48388 · /tle

For live sub-satellite position, see the globe view (requires WebGL).

§ Visibility from observer

Set your observer location to see the next 7 days of passes ≥ 10°. The values pass through the URL so the page stays shareable.

No JS? Fill the form by hand. The geolocation button needs JavaScript.